Location: McFarlands Corners
(41.4117°N, 81.3382°W)
Time: 16:33:07
(UTC+00:00)

Transit 2A - Pass Details

Date: 19 February 2026
Orbit: 590 x 954 km, 66.7° (Epoch: 7 March)

Event Time Altitude Azimuth Distance (km) Brightness Sun altitude
Rises 02:55:37 0° 328° (NNW) 3,550 10.1 -43.3°
Reaches altitude 10° 02:58:15 10° 326° (NW) 2,564 9.2 -43.7°
Enters shadow 02:59:16 15° 325° (NW) 2,184 8.8 -43.9°
